NV6B Weather Reports


Display with metric or nautical units.
time (UTC)temp
F
wind
direction
speed
MPH
gust
MPH
rain 1hr
in
rain 24hr
in
rain mn
in
humidity
%
barometer
mb
20260504003531 82 334 3.0 9.0 0.00 0.00 0.00 30 1003.1
20260504002531 82 286 3.0 9.0 0.00 0.00 0.00 31 1003.2
20260504001531 83 270 3.0 12.0 0.00 0.00 0.00 29 1003.3
20260504000531 83 339 3.0 9.0 0.00 0.00 0.00 29 1003.4
20260503235531 83 317 1.0 10.0 0.00 0.00 0.00 30 1003.4
20260503234531 84 294 7.0 11.0 0.00 0.00 0.00 28 1003.4
20260503233531 84 329 1.0 9.0 0.00 0.00 0.00 28 1003.6
20260503232531 84 358 3.0 7.0 0.00 0.00 0.00 29 1003.8
20260503201529 79 301 3.0 9.0 0.00 0.00 0.00 37 1006.8
20260503200529 79 271 0.0 9.0 0.00 0.00 0.00 38 1007.0
20260503195549 78 310 5.0 7.0 0.00 0.00 0.00 39 1007.1
20260503194528 77 262 1.0 8.0 0.00 0.00 0.00 41 1007.3
20260503193528 76 318 3.0 5.0 0.00 0.00 0.00 41 1007.4
20260503192528 76 278 3.0 7.0 0.00 0.00 0.00 43 1007.7
20260503191528 75 315 2.0 5.0 0.00 0.00 0.00 42 1007.9
20260503190528 75 312 4.0 5.0 0.00 0.00 0.00 44 1008.0
20260503054520 60 316 0.0 0.0 0.00 0.00 0.00 57 1008.6
20260503053520 60 316 0.0 0.0 0.00 0.00 0.00 56 1008.6
20260503052520 61 316 0.0 0.0 0.00 0.00 0.00 56 1008.6
20260503022518 74 316 0.0 0.0 0.00 0.00 0.00 38 1007.4
20260503021518 74 316 0.0 2.0 0.00 0.00 0.00 38 1007.3
20260503020518 75 316 0.0 1.0 0.00 0.00 0.00 37 1007.3
20260503015518 75 316 0.0 3.0 0.00 0.00 0.00 36 1007.3
20260503014518 76 314 0.0 4.0 0.00 0.00 0.00 35 1007.2
20260503013518 77 322 0.0 2.0 0.00 0.00 0.00 34 1007.3
20260503012518 77 322 1.0 5.0 0.00 0.00 0.00 33 1007.4
20260503011518 78 1 0.0 3.0 0.00 0.00 0.00 32 1007.6
20260503010517 78 1 0.0 2.0 0.00 0.00 0.00 32 1007.6